Aérodrome :
LOGIN :

S'inscrire | Disclaimer

   EN    FR    IT 

 










Légende :    VFR   VFR Marginal   IFR   IFR Intensif   IFR Très Intensif
Visi : 
Plafond : 
>= 8 km
>= 3000ft
5 à 8 km
1000 à 3000 ft
1500m à 5 km
500 à 1000 ft
800 à 1500m
200 à 500 ft
< 800m
< 200 ft
Symboles :   Orages  Brouillard  Fortes neiges  Fortes précipitations  Vent > 20 kt
SIGMETs :   Divers  Orages  Givrage  Turbulence  Onde Orograph.  Cendres Volcan.






- Altitude de l'aérodrome : 45 ft
- Code IATA : CEG


EGNR - Hawarden Chester

DERNIER METAR :
  • 081120Z 25006KT 220V290 9999 SCT034 08/03 Q1024

METARs EXPIRÉS :
  • 081050Z 23005KT 210V270 9999 SCT034 08/02 Q1024
  • 081020Z 22005KT 9999 SCT034 07/03 Q1024
  • 080950Z 21004KT 190V260 9999 SCT034 07/02 Q1024
  • 080920Z VRB02KT 9999 SCT034 06/02 Q1024
  • 080850Z 16005KT 9999 SCT038 03/01 Q1024

TAF TAF EGNR
Valide du 08 à 12h jusqu'au 08 à 21h UTC


081106Z 0812/0821 24004KT 9999 SCT030



MET'MAP, la Météo Aéronautique d'un coup d'oeil ! - Copyright ORBIFLY Décembre 2007 - Disclaimer

ORBIFLY MET'MAP TEAM :

Programmation & Développement : Alexandra Zaïnal
Sur une idée originale de : Baudouin d'Aumeries
Assistance à la programmation : Marc-Olivier Méhu
Soutien technique & logistique : Manuel Goepfert

Contact : metmap@orbifly.com




SOURCES & CREDITS :

   NOAA